This demonstration page uses our WeatherBlox Daily Observations layout. Learn more.

41.55636, -103.73856

Hourly Observations for March 4, 2015

Temp ( °F °C ) Dew Point ( °F °C ) Humidity (%) Winds ( mph kmh ) Pressure ( in mb ) Visibility ( mi km ) Precip ( " mm )
12:53 am 00:53 Cloudy 10 -12.2 5 -15 80 80 WNW 7 11 30.25 1024 10 16.0934 0 0
1:53 am 01:53 Clear 8 -13.3 5 -15 87 87 WNW 7 11 30.27 1025 10 16.0934 0 0
2:53 am 02:53 Mostly Cloudy 7 -13.9 3 -16.1 84 84 W 5 7 30.26 1025 10 16.0934 0 0
3:53 am 03:53 Mostly Cloudy 8 -13.3 4 -15.6 83 83 W 7 11 30.28 1026 10 16.0934 0 0
4:53 am 04:53 Partly Cloudy 8 -13.3 3 -16.1 80 80 WNW 8 13 30.31 1026 10 16.0934 0 0
5:53 am 05:53 Mostly Cloudy 9 -12.8 4 -15.6 80 80 WNW 9 15 30.31 1027 10 16.0934 0 0
6:53 am 06:53 Sunny 7 -13.9 2 -16.7 80 80 NW 5 7 30.35 1028 10 16.0934 0 0
7:53 am 07:53 Mostly Sunny 11 -11.7 4 -15.6 73 73 WNW 7 11 30.36 1028 10 16.0934 0 0
8:53 am 08:53 Sunny 17 -8.3 5 -15 59 59 WNW 8 13 30.36 1028 10 16.0934 0 0
9:53 am 09:53 Sunny 22 -5.6 -2 -18.9 35 35 NW 18 30 30.34 1028 10 16.0934 0 0
10:53 am 10:53 Sunny 23 -5 2 -16.7 40 40 WNW 21 33 30.34 1027 10 16.0934 0 0
11:53 am 11:53 Sunny 25 -4 3 -16 39 39 NW 20 31 30.36 1028 10 16.0934 0 0
12:53 pm 12:53 Sunny 25 -3.9 4 -15.6 40 40 WNW 12 19 30.34 1027 10 16.0934 0 0
1:53 pm 13:53 Sunny 25 -3.9 3 -16.1 39 39 NW 13 20 30.32 1027 10 16.0934 0 0
2:53 pm 14:53 Sunny 27 -2.8 2 -16.7 34 34 NW 14 22 30.32 1027 10 16.0934 0 0
3:53 pm 15:53 Sunny 26 -3.3 3 -16.1 37 37 NW 13 20 30.32 1027 10 16.0934 0 0
4:53 pm 16:53 Sunny 25 -3.9 1 -17.2 35 35 NW 15 24 30.33 1027 10 16.0934 0 0
5:53 pm 17:53 Clear 20 -6.7 3 -16.1 48 48 NW 10 17 30.35 1028 10 16.0934 0 0
6:53 pm 18:53 Clear 17 -8.3 4 -15.6 56 56 WNW 5 7 30.39 1029 10 16.0934 0 0
7:53 pm 19:53 Clear 16 -8.9 4 -15.6 59 59 W 5 7 30.4 1029 10 16.0934 0 0
8:53 pm 20:53 Clear 13 -10.6 4 -15.6 67 67 Calm 30.41 1030 10 16.0934 0 0
9:53 pm 21:53 Clear 11 -11.7 3 -16.1 70 70 Calm 30.4 1030 10 16.0934 0 0
10:53 pm 22:53 Clear 10 -12.2 2 -16.7 69 69 Calm 30.4 1030 10 16.0934 0 0
11:53 pm 23:53 Clear 7 -13.9 1 -17.2 76 76 E 3 6 30.4 1030 10 16.0934 0 0

Powered by AerisWeather